Regional Weather Roundup
Issued by NWS

Home | Current Version | Previous Version | Text Only | Print | Product List | Glossary On
Versions: 1 2 3 4 5 6 7 8 9 10 11 12 13 14 15 16 17 18 19 20 21 22 23 24 25 26 27 28 29 30 31 32 33 34 35 36 37 38 39 40 41 42 43 44 45 46 47 48 49 50
440
ASUS43 KTOP 190908
RWRKS

WEATHER ROUNDUP FOR KANSAS
NATIONAL WEATHER SERVICE GOODLAND KS
400 AM CDT THU APR 19 2018

NOTE:  "FAIR" INDICATES FEW OR NO CLOUDS BELOW 12,000 FEET WITH NO
SIGNIFICANT WEATHER AND/OR OBSTRUCTIONS TO VISIBILITY.

KSZ001>006-013>018-027>032-041>047-191000-
NORTHWEST KANSAS

CITY           SKY/WX    TMP DP  RH WIND       PRES   REMARKS
GOODLAND       CLEAR     27  21  78 S10       30.33R WCI  17
HAYS           CLOUDY    27  23  85 W6        30.36R
HILL CITY      CLEAR     27  25  92 N5        30.36R
RUSSELL        PTCLDY    28  25  88 W9        30.35R
$$

KSZ061>065-074>080-084>089-191000-
SOUTHWEST KANSAS

CITY           SKY/WX    TMP DP  RH WIND       PRES   REMARKS
DODGE CITY     CLOUDY    33  24  69 W3        30.33R
ELKHART        CLEAR     36  23  59 SE9       30.32S
GARDEN CITY    CLOUDY    35  24  64 SE5       30.33S
GREAT BEND     CLEAR     31  26  82 W8        30.35R
LIBERAL        CLOUDY    38  24  57 SE9       30.35R
PRATT          CLEAR     32  25  75 NW3       30.34R
$$

KSZ066>073-081>083-090>101-191000-
SOUTHEAST KANSAS

CITY           SKY/WX    TMP DP  RH WIND       PRES   REMARKS
CHANUTE        CLOUDY    34  26  72 W5        30.30R
COFFEYVILLE    CLOUDY    37  29  72 CALM      30.31R
HUTCHINSON     CLOUDY    29  25  85 W5        30.33R
MEDICINE LODGE   N/A     35  28  75 N3        30.34R
NEWTON         CLOUDY    32  26  78 NW6       30.33R
PARSONS        CLOUDY    33  28  81 CALM      30.32R
WICHITA INTL   CLOUDY    32  27  81 W6        30.33R
WICHITA JABRA  CLOUDY    34  28  79 W7        30.32R
WICHITA MCCONL CLOUDY    38  26  62 CALM      30.33R
WINFIELD       CLOUDY    33  28  81 NW5       30.34R
$$

KSZ007>012-019>026-033>040-048>060-102>105-191000-
NORTHEAST KANSAS

CITY           SKY/WX    TMP DP  RH WIND       PRES   REMARKS
CONCORDIA      PTCLDY    32  27  81 NW9       30.32R
EMPORIA        CLOUDY    30  25  81 NW6       30.29S
LAWRENCE       CLOUDY    39  30  70 NW9       30.28R
MANHATTAN      CLEAR     30  24  78 CALM      30.32R
MARYSVILLE     CLEAR     32  30  93 N9        30.32R
OLATHE IND     CLOUDY    38  29  70 NW12      30.27S WCI  30
OLATHE EXE     CLOUDY    37  29  72 NW8       30.26R
SALINA         CLOUDY    33  26  75 W8        30.34R
TOPEKA BILLARD CLOUDY    36  29  75 NW7       30.29R
TOPEKA FORBES  CLOUDY    37  28  70 NW9       30.28R
$$




USA.gov is the U.S. government's official web portal to all federal, state and local government web resources and services.